カタログに戻る

STARLINK-34801

運用中通信VLEO
NORAD 66076·PAYLOAD·🇺🇸 United States

打ち上げ Oct 19, 2025 から Cape Canaveral Space Force Station

Loading…

次のパス (今後24時間)

TLE

最新Source: CelesTrak SupGP

元期: Sep 15, 2026, 03:09 UTC

1 66076C 25235U   26258.13173611 -.00023020  00000+0 -68015-3 0  2587
2 66076  53.1588  84.8416 0001230  85.9833 244.6084 15.34402115    15

AllMySatでSTARLINK-34801をリアルタイム追跡

Download on the App Store